User: anonymous   Login
Location: Borotín
(49.5055°N, 14.6142°E)
Time: 13:59:07
(UTC+00:00)
Language:

USA 308 - Orbit

View from above orbital plane
View from above orbital plane
View from above satellite
View from above satellite

Ground track
Ground track

The orbit data is extracted from the following two-line orbital elements,

1 45876U 20046D   22225.91633355 0.00010986  00000-0  74695-3 0    01
2 45876  53.9791 225.4221 0004037 140.0276 219.9277 15.05874759    06
Epoch (UTC): 13 August 2022 21:59:31
Eccentricity: 0.0004037
inclination: 53.9791°
perigee height: 546 km
apogee height: 551 km
right ascension of ascending node: 225.4221°
argument of perigee: 140.0276°
revolutions per day: 15.05874759
mean anomaly at epoch: 219.9277°
orbit number at epoch: 0

The dashed part of the orbit path shows where the satellite is in the earth's shadow,  

DLR